VK3GY-13 Weather Reports


time (UTC)temp
F
wind
direction
speed
knots
gust
knots
rain 1hr
in
rain 24hr
in
rain mn
in
humidity
%
barometer
mb
20260505123009 56 257 0.9 2.6 0.00 0.00 0.00 81 1021.2
20260505122009 56 257 0.9 2.6 0.00 0.00 0.00 81 1021.2
20260505121009 56 257 0.0 0.9 0.00 0.00 0.00 82 1021.3
20260505120009 56 257 0.0 2.6 0.00 0.00 0.00 82 1021.3
20260505115009 56 257 0.9 2.6 0.00 0.00 0.00 82 1021.3
20260505114009 56 257 0.0 2.6 0.00 0.00 0.00 82 1021.3
20260505113009 57 197 1.7 2.6 0.00 0.00 0.00 82 1021.3
20260505112009 57 197 0.9 1.7 0.00 0.00 0.00 82 1021.3
20260505111009 57 197 0.0 2.6 0.00 0.00 0.00 82 1021.4
20260505102011 57 197 0.0 1.7 0.00 0.00 0.00 82 1021.2
20260505101009 57 197 0.9 2.6 0.00 0.00 0.00 82 1021.3
20260505100009 57 197 0.0 2.6 0.00 0.00 0.00 82 1021.3
20260505095009 57 197 0.9 2.6 0.00 0.00 0.00 82 1021.4
20260505094009 57 197 0.0 1.7 0.00 0.00 0.00 81 1021.4
20260505093009 57 197 0.0 2.6 0.00 0.00 0.00 82 1021.3
20260505092009 57 197 0.9 2.6 0.00 0.00 0.00 82 1021.3
20260505091009 57 197 0.9 2.6 0.00 0.00 0.00 82 1021.2
20260505090009 57 197 0.9 2.6 0.00 0.00 0.00 82 1021.2
20260505085008 57 197 0.0 1.7 0.00 0.00 0.00 82 1021.1
20260505084009 57 197 0.9 1.7 0.00 0.00 0.00 82 1021.0
20260505083009 57 197 0.0 1.7 0.00 0.00 0.00 82 1021.0
20260505082009 57 197 0.0 0.9 0.00 0.00 0.00 82 1020.9
20260505081009 57 197 0.0 0.9 0.00 0.00 0.00 82 1020.7
20260505080008 57 197 0.9 0.9 0.00 0.00 0.00 82 1020.6
20260505075009 57 197 0.9 2.6 0.00 0.00 0.00 82 1020.5
20260505074009 58 197 0.0 0.9 0.00 0.00 0.00 82 1020.4
20260505073009 58 197 0.9 1.7 0.00 0.00 0.00 81 1020.3
20260505072009 58 197 0.9 1.7 0.00 0.00 0.00 81 1020.2
20260505071009 58 197 0.9 2.6 0.00 0.00 0.00 81 1020.1
20260505070009 58 197 0.9 2.6 0.00 0.00 0.00 80 1020.1
20260505065009 58 197 0.9 2.6 0.00 0.00 0.00 80 1020.1
20260505064010 58 197 0.9 6.1 0.00 0.00 0.00 80 1019.9
20260505063009 59 195 2.6 6.1 0.00 0.00 0.00 79 1019.9
20260505062009 59 210 2.6 5.2 0.00 0.00 0.00 78 1019.9
20260505061009 60 223 5.2 7.8 0.00 0.00 0.00 76 1019.9
20260505060009 60 246 2.6 4.3 0.00 0.00 0.00 73 1019.7
20260505055009 60 248 0.9 2.6 0.00 0.00 0.00 73 1019.6
20260505054009 60 248 1.7 4.3 0.00 0.00 0.00 73 1019.5
20260505053009 60 248 2.6 6.1 0.00 0.00 0.00 73 1019.4
20260505052010 60 244 2.6 6.1 0.00 0.00 0.00 73 1019.4
20260505051009 60 243 1.7 7.0 0.00 0.00 0.00 74 1019.2
20260505041009 59 251 3.5 10.4 0.00 0.00 0.00 76 1018.8
20260505040009 58 229 4.3 11.3 0.00 0.00 0.00 77 1018.7
20260505035009 58 236 4.3 10.4 0.00 0.00 0.00 79 1018.7
20260505034009 58 245 3.5 10.4 0.00 0.00 0.00 79 1018.6
20260505033009 58 236 6.1 13.0 0.00 0.00 0.00 78 1018.7
20260505032009 59 242 6.1 14.8 0.00 0.00 0.00 75 1018.7
20260505031009 60 255 6.1 11.3 0.00 0.00 0.00 74 1018.6
20260505030009 60 268 4.3 11.3 0.00 0.00 0.00 73 1018.6
20260505025009 60 271 5.2 10.4 0.00 0.00 0.00 73 1018.6
20260505024009 61 265 7.8 14.8 0.00 0.00 0.00 71 1018.5
20260505023009 61 261 6.1 11.3 0.00 0.00 0.00 73 1018.6
20260505022009 61 272 6.1 11.3 0.00 0.00 0.00 75 1018.6
20260505021009 60 275 7.0 13.9 0.00 0.00 0.00 76 1018.6
20260505020009 60 254 5.2 13.0 0.00 0.00 0.00 77 1018.7
20260505015009 60 247 6.1 13.0 0.00 0.00 0.00 77 1018.8
20260505014009 60 265 5.2 12.2 0.00 0.00 0.00 77 1018.7
20260505013009 60 247 5.2 12.2 0.00 0.00 0.00 79 1018.6
20260505012010 59 271 6.1 12.2 0.00 0.00 0.00 80 1018.7
20260505011009 59 244 5.2 12.2 0.00 0.01 0.00 81 1018.7
20260505010009 59 269 5.2 12.2 0.00 0.01 0.00 81 1018.7
20260505005009 59 249 5.2 12.2 0.00 0.01 0.00 82 1018.6
20260505004009 58 259 5.2 10.4 0.00 0.01 0.00 83 1018.5
20260505003010 58 255 5.2 12.2 0.00 0.01 0.00 84 1018.4
20260505002010 58 277 7.8 12.2 0.00 0.01 0.00 86 1018.2
20260505001009 57 287 6.1 11.3 0.00 0.01 0.00 88 1018.2
20260505000009 56 240 3.5 11.3 0.00 0.01 0.00 88 1018.2
20260504235009 56 270 4.3 10.4 0.00 0.01 0.00 88 1018.1
20260504234009 56 259 4.3 11.3 0.00 0.01 0.00 88 1018.1
20260504233009 57 259 3.5 12.2 0.00 0.01 0.00 88 1018.1
20260504232009 57 265 4.3 11.3 0.00 0.01 0.00 88 1017.9
20260504231009 57 257 4.3 11.3 0.00 0.01 0.00 88 1017.7
20260504230009 56 277 4.3 10.4 0.00 0.01 0.00 88 1017.6
20260504225009 56 281 4.3 11.3 0.00 0.01 0.00 89 1017.6
20260504224008 56 268 5.2 11.3 0.00 0.01 0.00 88 1017.4
20260504223009 56 267 7.0 11.3 0.00 0.01 0.00 88 1017.3
20260504222009 56 270 5.2 11.3 0.00 0.01 0.00 88 1017.1
20260504221009 56 280 6.1 10.4 0.00 0.01 0.00 88 1016.9
20260504220009 56 279 5.2 12.2 0.00 0.01 0.00 88 1016.7
20260504215009 56 282 5.2 11.3 0.00 0.01 0.00 88 1016.5
20260504214008 56 296 5.2 7.8 0.00 0.01 0.00 88 1016.3
20260504213009 56 280 4.3 10.4 0.00 0.01 0.00 88 1016.0
20260504212009 56 283 4.3 11.3 0.00 0.01 0.00 87 1015.8
20260504211009 56 271 6.1 11.3 0.00 0.01 0.00 87 1015.6
20260504210008 56 282 5.2 10.4 0.00 0.01 0.00 87 1015.5
20260504205009 56 291 6.1 12.2 0.00 0.01 0.00 86 1015.4
20260504204009 56 286 6.1 11.3 0.00 0.01 0.00 85 1015.2
20260504203009 56 288 6.1 11.3 0.00 0.01 0.00 85 1015.1
20260504202011 57 293 6.1 10.4 0.00 0.01 0.00 85 1014.9
20260504201009 57 278 5.2 13.9 0.00 0.01 0.00 85 1014.7
20260504200009 57 284 5.2 12.2 0.00 0.01 0.00 85 1014.5
20260504195009 57 301 5.2 10.4 0.00 0.01 0.00 84 1014.4
20260504194009 57 282 6.1 10.4 0.00 0.01 0.00 84 1014.4
20260504193009 57 283 5.2 11.3 0.00 0.01 0.00 83 1014.3
20260504192009 57 280 6.1 13.9 0.00 0.01 0.00 83 1014.2
20260504191009 57 283 7.8 13.0 0.00 0.01 0.00 84 1014.0
20260504190009 57 286 7.8 13.0 0.00 0.01 0.00 84 1013.9
20260504185009 57 284 6.1 13.0 0.00 0.01 0.00 84 1013.8
20260504184009 57 280 6.1 13.0 0.00 0.01 0.00 84 1013.6
20260504183010 57 276 6.1 13.9 0.00 0.01 0.00 84 1013.5
20260504182009 57 278 6.1 12.2 0.00 0.01 0.00 84 1013.4
20260504181009 57 275 7.8 13.9 0.00 0.01 0.00 83 1013.2
20260504180009 57 283 7.8 13.9 0.00 0.01 0.00 83 1013.1
20260504175009 57 288 7.0 13.9 0.00 0.01 0.00 82 1013.1
20260504174009 57 277 8.7 19.1 0.00 0.01 0.00 81 1013.0
20260504173009 58 282 8.7 15.6 0.00 0.01 0.00 81 1012.8
20260504172009 58 274 9.6 17.4 0.00 0.01 0.00 81 1012.8
20260504171009 58 282 10.4 18.2 0.00 0.01 0.00 80 1012.6
20260504151009 58 285 9.6 17.4 0.00 0.01 0.00 79 1012.0
20260504141009 59 294 7.8 20.0 0.00 0.01 0.00 75 1011.4